Inquirer Daily News

Weather

Get conditions and forecasts for any City, State, ZIP code or Country:  
Trenton, NJ
on Friday, November 30, 2012

Friday
Previous Day Next Day
Daily Summary
 ActualAverageRecord
Temperature
Mean Temperature °F 41°F  
Max Temperature 47°F 49°F 71°F (1933)
Min Temperature 25°F 33°F 9°F (1875)
Degree Days
Heating Degree Days 29 24  
Month to date heating degree days 700 580  
Since 1 July heating degree days 1007 976  
Cooling Degree Days 0 0  
Month to date cooling degree days 0 0  
Year to date cooling degree days 1234 965  
Moisture
Dew Point 30°F   
Average Humidity 71    
Maximum Humidity 92    
Minimum Humidity 49    
Precipitation
Precipitation 0.00 in 0.14 in 0.76 in (1898)
Month to date precipitation 1.18 3.31  
Year to date precipitation 33.23 42.74  
Wind
Wind Speed 4 mph   
Max Wind Speed 14 mph   
Max Gust Speed 17 mph   
Visibility 8 miles   
Events     

Key: T is trace of precipitation, MM is missing value
Source: NWS Daily Summary
Time(EST)TemperatureDew PointHumidity Pressure Visibility Wind DirectionWind SpeedGust SpeedPrecipitationEvents Conditions
12:53 AM 30.0°F 21.9°F 72% 30.31 in 8.0 miles Calm Calm - N/A   Clear
1:53 AM 27.0°F 21.9°F 81% 30.33 in 8.0 miles Calm Calm - N/A   Clear
2:53 AM 28.0°F 21.9°F 78% 30.33 in 8.0 miles Calm Calm - N/A   Clear
3:53 AM 27.0°F 23.0°F 85% 30.32 in 7.0 miles WSW 3.5 mph - N/A   Clear
4:53 AM 28.0°F 23.0°F 81% 30.32 in 8.0 miles Calm Calm - N/A   Clear
5:53 AM 26.1°F 21.9°F 84% 30.33 in 7.0 miles North 4.6 mph - N/A   Clear
7:53 AM 27.0°F 24.1°F 89% 30.37 in 5.0 miles Calm Calm - N/A   Scattered Clouds
8:53 AM 33.1°F 28.0°F 82% 30.37 in 6.0 miles Calm Calm - N/A   Haze
9:53 AM 39.0°F 28.9°F 67% 30.39 in 6.0 miles Calm Calm - N/A   Haze
10:53 AM 42.1°F 28.0°F 58% 30.37 in 8.0 miles Calm Calm - N/A   Mostly Cloudy
11:53 AM 45.0°F 28.0°F 52% 30.35 in 10.0 miles East 5.8 mph - N/A   Scattered Clouds
12:53 PM 45.0°F 26.1°F 48% 30.35 in 10.0 miles East 5.8 mph - N/A   Overcast
1:53 PM 45.0°F 28.0°F 52% 30.35 in 9.0 miles East 6.9 mph - N/A   Overcast
2:53 PM 45.0°F 28.0°F 52% 30.35 in 9.0 miles NE 4.6 mph - N/A   Overcast
3:53 PM 44.1°F 28.0°F 53% 30.34 in 8.0 miles ENE 4.6 mph - N/A   Mostly Cloudy
4:53 PM 42.1°F 30.0°F 62% 30.35 in 9.0 miles East 5.8 mph - N/A   Clear
5:53 PM 41.0°F 30.9°F 67% 30.36 in 9.0 miles ENE 5.8 mph - N/A   Clear
6:53 PM 41.0°F 32.0°F 70% 30.37 in 9.0 miles ENE 8.1 mph - N/A   Partly Cloudy
7:53 PM 41.0°F 37.0°F 86% 30.39 in 8.0 miles East 5.8 mph - N/A   Scattered Clouds
8:53 PM 39.0°F 36.0°F 89% 30.38 in 7.0 miles NE 4.6 mph - N/A   Clear
9:27 PM 39.2°F 37.4°F 93% 30.40 in 6.0 miles ENE 5.8 mph - N/A   Mostly Cloudy
9:39 PM 39.2°F 37.4°F 93% 30.39 in 7.0 miles East 8.1 mph - N/A   Overcast
9:53 PM 41.0°F 37.9°F 89% 30.38 in 8.0 miles East 9.2 mph - N/A   Overcast
10:12 PM 41.0°F 37.4°F 87% 30.39 in 9.0 miles East 10.4 mph - N/A   Scattered Clouds
10:53 PM 39.9°F 37.0°F 89% 30.39 in 9.0 miles East 9.2 mph - N/A   Overcast
11:53 PM 39.9°F 35.1°F 83% 30.40 in 10.0 miles East 11.5 mph - N/A   Mostly Cloudy
Astronomy
Sunrise:07:02 AM (EST) Moon Rise:06:26 PM (EST)11/30
Sunset:04:33 PM (EST) Moon Set:08:32 AM (EST)11/30
Moon Phase
Nov. 30 Dec. 06 Dec. 13 Dec. 20 Dec. 28

Copyright © 2014 The Weather Underground, Inc.